Regional Weather Roundup
Issued by NWS

Home | Current Version | Previous Version | Text Only | Print | Product List | Glossary On
Versions: 1 2 3 4 5 6 7 8 9 10 11 12 13 14 15 16 17 18 19 20 21 22 23 24 25 26 27 28 29 30 31 32 33 34 35 36 37 38 39 40 41 42 43 44 45 46 47 48 49 50
000
ASUS46 KSEW 030510
RWRWA

WASHINGTON REGIONAL WEATHER ROUNDUP
NATIONAL WEATHER SERVICE SEATTLE WA
900 PM PST MON MAR 02 2015

NOTE:"FAIR" INDICATES FEW OR NO CLOUDS BELOW 12,000 FEET WITH NO
SIGNIFICANT WEATHER AND/OR OBSTRUCTIONS TO VISIBILITY.

WAZ505-507>509-030600-
SEATTLE, TACOMA, EVERETT, AND VICINITY

CITY           SKY/WX    TMP DP  RH WIND       PRES   REMARKS
EVERETT        FAIR      44  31  60 N8        30.09R
BOEING FIELD   FAIR      48  32  53 CALM      30.10R
RENTON         FAIR      42  34  73 CALM      30.10R
SEATAC AIRPORT FAIR      45  30  55 N12       30.09R
JBLM-MCCHORD   FAIR      40  30  65 CALM      30.09R
PUYALLUP       FAIR      36  32  87 CALM      30.09R
BREMERTON      FAIR      46  25  42 N15G21    30.10F
JBLM-FT LEWIS  FAIR      36  33  88 S2        30.09R
TACOMA NARROWS FAIR      47  26  44 N7        30.10R
$$

WAZ001-503-506-510-514-515-030600-
NORTH INTERIOR

CITY           SKY/WX    TMP DP  RH WIND       PRES   REMARKS
BELLINGHAM     FAIR      45  13  27 N13G20    30.13R
FRIDAY HARBOR  FAIR      44  29  55 N7        30.15R
EASTSOUND      FAIR      46  23  39 CALM      30.12S
PORT ANGELES   FAIR      35  30  82 W3        30.14R
NAS WHIDBEY    FAIR      47  34  60 N9        30.12R
ARLINGTON      FAIR      37  25  60 NW6       30.11R
BURLINGTON     CLEAR     39  30  70 NW7       30.12R
$$

WAZ020-022-039-040-504-511-512-030600-
SOUTHWEST INTERIOR

CITY           SKY/WX    TMP DP  RH WIND       PRES   REMARKS
SHELTON        FAIR      33  28  81 SW6       30.08R
OLYMPIA        FAIR      32  29  88 CALM      30.11R
CHEHALIS       FAIR      37  36  93 CALM      30.10R
KELSO          FAIR      39  30  70 CALM      30.12R
VANCOUVER      FAIR      47  31  53 NW5       30.06R
SCAPPOOSE, OR  FAIR      44  30  57 E6        30.06R
PORTLAND, OR   FAIR      46  33  60 NW13      30.06R
$$

WAZ021-516-517-030600-
WASHINGTON COAST

CITY           SKY/WX    TMP DP  RH WIND       PRES   REMARKS
FORKS          FAIR      36  35  96 CALM      30.12R
HOQUIAM        FAIR      44  41  89 NE3       30.10R
ASTORIA, OR    FAIR      44  38  79 CALM      30.11R
$$

WAZ019-023-024-040-518-519-030600-
CASCADE MOUNTAINS AND COLUMBIA GORGE

CITY           SKY/WX    TMP DP  RH WIND       PRES   REMARKS
TROUTDALE, OR  FAIR      47  30  51 W6        30.04R
THE DALLES, OR CLOUDY    46  33  60 CALM      30.05R
$$

WAZ026-027-041>044-520-521-030600-
EAST SLOPES

CITY           SKY/WX    TMP DP  RH WIND       PRES   REMARKS
OMAK           FAIR      36  15  42 N14       30.09R
WENATCHEE      FAIR      44   9  23 N26G35    30.04R
ELLENSBURG     FAIR      35  31  85 N7        30.03R
YAKIMA         LGT RAIN  43  31  62 NW6       30.05S
$$

WAZ028-034-035-030600-
COLUMBIA BASIN

CITY           SKY/WX    TMP DP  RH WIND       PRES   REMARKS
EPHRATA        FAIR      40  15  36 N21       30.04R
MOSES LAKE     FAIR      40  13  33 N24G35    30.03R
PASCO          CLOUDY    44  18  35 N22G28    30.05R
HERMISTON, OR  CLOUDY    45  20  36 NW7       30.04R
$$

WAZ036>038-030600-
NORTHEAST WASHINGTON

CITY           SKY/WX    TMP DP  RH WIND       PRES   REMARKS
SPOKANE GEIGER LGT SNOW  30  28  92 N14       29.97R FOG     WCI  19
SPOKANE FELTS  CLOUDY    33  27  78 CALM      30.00R
FAIRCHILD AFB  LGT SNOW  30  28  93 NE17      29.97R FOG     WCI  18
COEURDALENE,ID FAIR      30  19  64 N21G26    29.98R WCI  17
DEER PARK      CLOUDY    30  27  88 NE12      30.01R WCI  20
$$

WAZ029>033-030600-
SOUTHEAST WASHINGTON

CITY           SKY/WX    TMP DP  RH WIND       PRES   REMARKS
PULLMAN        MOCLDY    31  29  92 W8        29.94R
LEWISTON, ID   LGT RAIN  35  33  92 W7        29.97R
WALLA WALLA    FAIR      38  28  67 SE6       29.99R
PENDLETON, OR  MOCLDY    36  27  69 NW15      30.00R
$$



USA.gov is the U.S. government's official web portal to all federal, state and local government web resources and services.